Location: Unspecified
(0.0000°N, 0.0000°E)
Time: 05:32:04
(UTC+00:00)

S-56A Canister/Altair - Pass Details

Date: 16 December 2018
Orbit: 633 x 2499 km, 38.9° (Epoch: 16 June)

Event Time Altitude Azimuth Distance (km) Brightness Sun altitude
Rises 06:55:26 0° 338° (NNW) 5,833 11.6 13.7°
Reaches altitude 10° 07:03:13 10° 4° (N) 5,080 11.5 15.5°
Maximum altitude 07:08:36 13° 26° (NNE) 4,933 11.7 16.7°
Drops below altitude 10° 07:14:01 10° 47° (NE) 5,135 12.1 18.0°
Sets 07:21:52 0° 73° (ENE) 5,965 12.8 19.7°
